Date String (YYYY-MM-DD hh:mm:ss) UTC,Instrument flags,Ambient pressure (hPa),Sample flow (lpm),Bypass flow (lpm),Sample temperature (°C),Ambient temperature (°C),ASC tube jacket temperature (°C),LED temperature (°C),Box temperature (°C),Sample RH (%),Span deviation,Mass concentration (μg/m³),Mass concentration (μg/m³),Mass concentration (μg/m³)
DateTimeUTC,F1_M11,P_M11,Q1_M11,Q2_M11,T1_M11,T2_M11,T3_M11,T4_M11,T5_M11,U1_M11,ZSPAN_M11,X0_M11,X2_M11,X1_M11
2022-12-15 18:00:00,,0820.5,4.96,0.00,21.9,22.0,00.0,30.7,23.9,07.7,0000.0,0010.18,0005.17,0004.47
2022-12-15 18:01:00,,0820.5,5.02,0.00,22.1,22.5,00.0,30.7,24.1,07.5,0000.0,0010.64,0005.12,0004.44
2022-12-15 18:02:00,,0820.6,4.96,0.00,22.1,22.1,00.0,30.8,24.1,07.5,0000.0,0010.70,0005.10,0004.41
2022-12-15 18:03:00,,0820.6,5.01,0.00,22.1,21.8,00.0,30.8,24.1,07.4,0000.0,0010.90,0005.06,0004.38
2022-12-15 18:04:00,,0820.6,5.00,0.00,22.2,21.5,00.0,30.9,24.0,07.4,0000.0,0011.37,0004.95,0004.35
2022-12-15 18:05:00,,0820.6,5.03,0.00,22.2,21.3,00.0,30.9,24.0,07.6,0000.0,0011.19,0004.91,0004.32
2022-12-15 18:06:00,,0820.6,4.95,0.00,22.1,21.1,00.0,30.9,23.9,07.6,0000.0,0010.73,0004.85,0004.29
2022-12-15 18:07:00,,0820.6,5.05,0.00,22.1,21.0,00.0,30.9,23.9,07.7,0000.0,0010.54,0004.82,0004.28
2022-12-15 18:08:00,,0820.6,4.95,0.00,22.1,20.9,00.0,30.9,23.9,07.8,0000.0,0010.42,0004.82,0004.30
2022-12-15 18:09:00,,0820.6,5.04,0.00,22.1,20.7,00.0,30.9,23.8,07.8,0000.0,0010.52,0004.87,0004.32
2022-12-15 18:10:00,,0820.6,4.96,0.00,22.1,20.6,00.0,30.9,23.8,07.8,0000.0,0010.82,0004.95,0004.34
2022-12-15 18:11:00,,0820.6,5.05,0.00,22.0,20.5,00.0,30.9,23.7,07.9,0000.0,0010.96,0005.00,0004.38
2022-12-15 18:12:00,,0820.6,4.95,0.00,22.0,20.4,00.0,30.9,23.7,07.8,0000.0,0010.81,0005.10,0004.42
2022-12-15 18:13:00,,0820.6,5.05,0.00,22.0,20.3,00.0,30.9,23.6,07.9,0000.0,0010.71,0005.11,0004.42
2022-12-15 18:14:00,,0820.6,4.96,0.00,22.0,20.9,00.0,30.9,23.8,08.0,0000.0,0010.53,0005.14,0004.43
2022-12-15 18:15:00,,0820.6,5.01,0.00,22.1,22.0,00.0,30.8,24.1,07.9,0000.0,0010.50,0005.21,0004.43
2022-12-15 18:16:00,,0820.6,5.01,0.00,22.2,22.4,00.0,30.9,24.2,07.9,0000.0,0011.00,0005.24,0004.43
2022-12-15 18:17:00,,0820.6,4.99,0.00,22.3,22.0,00.0,30.9,24.2,07.8,0000.0,0011.00,0005.29,0004.43
2022-12-15 18:18:00,,0820.6,4.98,0.00,22.3,21.7,00.0,31.0,24.1,07.9,0000.0,0011.60,0005.28,0004.41
2022-12-15 18:19:00,,0820.6,5.03,0.00,22.2,21.4,00.0,31.0,24.0,07.8,0000.0,0011.88,0005.22,0004.39
2022-12-15 18:20:00,,0820.7,4.95,0.00,22.2,21.2,00.0,31.0,24.0,07.7,0000.0,0011.68,0005.12,0004.35
2022-12-15 18:21:00,,0820.6,5.04,0.00,22.2,21.0,00.0,31.0,24.0,07.9,0000.0,0012.10,0005.08,0004.33
2022-12-15 18:22:00,,0820.6,4.95,0.00,22.2,20.9,00.0,31.0,23.9,07.9,0000.0,0012.25,0005.07,0004.30
2022-12-15 18:23:00,,0820.6,5.06,0.00,22.2,20.8,00.0,31.0,23.9,07.9,0000.0,0012.11,0005.04,0004.28
2022-12-15 18:24:00,,0820.6,4.96,0.00,22.2,20.6,00.0,31.0,23.9,08.0,0000.0,0012.20,0005.10,0004.31
2022-12-15 18:25:00,,0820.6,5.05,0.00,22.1,20.6,00.0,31.0,23.8,08.0,0000.0,0013.55,0005.11,0004.34
2022-12-15 18:26:00,,0820.5,4.96,0.00,22.1,20.6,00.0,31.0,23.8,08.0,0000.0,0013.68,0005.15,0004.36
2022-12-15 18:27:00,,0820.5,5.00,0.00,22.2,21.4,00.0,31.0,24.0,07.8,0000.0,0013.22,0005.17,0004.37
2022-12-15 18:28:00,,0820.5,5.02,0.00,22.3,22.4,00.0,31.0,24.3,07.9,0000.0,0013.55,0005.16,0004.39
2022-12-15 18:29:00,,0820.4,4.98,0.00,22.4,22.5,00.0,31.0,24.4,08.0,0000.0,0013.61,0005.21,0004.43
2022-12-15 18:30:00,,0820.4,5.01,0.00,22.4,22.1,00.0,31.1,24.3,07.9,0000.0,0013.59,0005.31,0004.47
2022-12-15 18:31:00,,0820.4,5.00,0.00,22.4,21.6,00.0,31.1,24.2,08.0,0000.0,0014.61,0005.44,0004.51
2022-12-15 18:32:00,,0820.3,5.00,0.00,22.3,21.3,00.0,31.1,24.1,08.0,0000.0,0014.60,0005.57,0004.55
2022-12-15 18:33:00,,0820.3,5.00,0.00,22.3,21.0,00.0,31.1,24.0,08.1,0000.0,0014.80,0005.66,0004.59
2022-12-15 18:34:00,,0820.4,4.99,0.00,22.3,20.8,00.0,31.1,23.9,08.0,0000.0,0015.32,0005.74,0004.63
2022-12-15 18:35:00,,0820.4,4.98,0.00,22.2,20.7,00.0,31.1,23.9,08.0,0000.0,0016.01,0005.79,0004.66
2022-12-15 18:36:00,,0820.3,5.03,0.00,22.2,20.5,00.0,31.1,23.8,08.1,0000.0,0015.50,0005.88,0004.69
2022-12-15 18:37:00,,0820.3,5.00,0.00,22.2,20.4,00.0,31.1,23.8,08.0,0000.0,0014.43,0005.93,0004.73
2022-12-15 18:38:00,,0820.3,4.98,0.00,22.1,20.4,00.0,31.1,23.7,08.0,0000.0,0014.63,0005.99,0004.77
2022-12-15 18:39:00,,0820.3,5.03,0.00,22.1,20.9,00.0,31.0,23.9,08.0,0000.0,0015.32,0006.07,0004.79
2022-12-15 18:40:00,,0820.4,4.98,0.00,22.2,22.0,00.0,31.0,24.1,07.9,0000.0,0015.09,0006.10,0004.80
2022-12-15 18:41:00,,0820.4,5.01,0.00,22.4,22.5,00.0,31.0,24.3,07.8,0000.0,0014.89,0006.06,0004.79
2022-12-15 18:42:00,,0820.4,5.01,0.00,22.4,22.1,00.0,31.1,24.3,07.8,0000.0,0014.29,0006.01,0004.79
2022-12-15 18:43:00,,0820.4,4.97,0.00,22.4,21.6,00.0,31.1,24.2,07.8,0000.0,0013.65,0005.93,0004.79
2022-12-15 18:44:00,,0820.3,5.05,0.00,22.3,21.3,00.0,31.1,24.1,07.7,0000.0,0013.94,0005.86,0004.79
2022-12-15 18:45:00,,0820.3,4.96,0.00,22.3,21.0,00.0,31.1,24.0,07.6,0000.0,0013.55,0005.80,0004.78
2022-12-15 18:46:00,,0820.3,5.01,0.00,22.3,20.8,00.0,31.1,23.9,07.6,0000.0,0012.97,0005.75,0004.75
2022-12-15 18:47:00,,0820.2,5.01,0.00,22.2,20.7,00.0,31.1,23.9,07.6,0000.0,0013.28,0005.66,0004.73
2022-12-15 18:48:00,,0820.2,4.96,0.00,22.2,20.5,00.0,31.1,23.8,07.7,0000.0,0013.30,0005.57,0004.70
2022-12-15 18:49:00,,0820.2,5.04,0.00,22.1,20.4,00.0,31.1,23.8,07.6,0000.0,0013.21,0005.53,0004.67
2022-12-15 18:50:00,,0820.3,4.95,0.00,22.1,20.3,00.0,31.1,23.7,07.6,0000.0,0012.03,0005.41,0004.64
2022-12-15 18:51:00,,0820.3,5.05,0.00,22.1,20.2,00.0,31.1,23.7,07.6,0000.0,0011.77,0005.32,0004.60
2022-12-15 18:52:00,,0820.3,4.96,0.00,22.1,21.0,00.0,31.0,23.9,07.6,0000.0,0012.43,0005.28,0004.58
2022-12-15 18:53:00,,0820.3,5.01,0.00,22.2,22.2,00.0,31.0,24.2,07.6,0000.0,0012.22,0005.23,0004.54
2022-12-15 18:54:00,,0820.3,5.02,0.00,22.3,22.4,00.0,31.0,24.3,07.5,0000.0,0012.27,0005.17,0004.50
2022-12-15 18:55:00,,0820.2,4.97,0.00,22.3,21.9,00.0,31.1,24.2,07.5,0000.0,0011.48,0005.10,0004.45
2022-12-15 18:56:00,,0820.2,5.01,0.00,22.3,21.5,00.0,31.1,24.1,07.6,0000.0,0011.68,0005.03,0004.43
2022-12-15 18:57:00,,0820.2,5.02,0.00,22.3,21.2,00.0,31.1,24.0,07.6,0000.0,0011.82,0005.00,0004.43
2022-12-15 18:58:00,,0820.2,4.96,0.00,22.2,21.0,00.0,31.1,24.0,07.6,0000.0,0011.97,0005.00,0004.44
2022-12-15 18:59:00,,0820.3,5.04,0.00,22.2,20.8,00.0,31.1,23.9,07.5,0000.0,0012.05,0005.01,0004.45
